EW7149 Weather Reports


Display with metric or nautical units.
time (UTC)temp
F
wind
direction
speed
MPH
gust
MPH
rain 1hr
in
rain 24hr
in
rain mn
in
humidity
%
barometer
mb
20260510214643 69 288 0.0 0.0 0.00 0.01 0.01 52 1013.5
20260510214143 69 278 0.0 1.0 0.00 0.01 0.01 52 1013.7
20260510213652 69 309 0.0 1.0 0.00 0.01 0.01 53 1013.8
20260510213146 70 259 0.0 0.0 0.00 0.01 0.01 53 1013.7
20260510212636 70 259 0.0 0.0 0.00 0.01 0.01 53 1013.4
20260510211137 71 275 0.0 0.0 0.00 0.01 0.01 54 1012.8
20260510210645 71 275 0.0 0.0 0.00 0.01 0.01 54 1012.7
20260510205646 71 202 0.0 2.0 0.00 0.01 0.01 55 1012.6
20260510205146 71 269 0.0 0.0 0.00 0.01 0.01 56 1012.5
20260510204629 72 269 0.0 0.0 0.00 0.01 0.01 56 1012.5
20260510204127 72 269 0.0 0.0 0.00 0.01 0.01 56 1012.4
20260510203633 72 270 0.0 0.0 0.00 0.01 0.01 56 1012.4
20260510203124 72 270 0.0 0.0 0.00 0.01 0.01 56 1012.2
20260510202135 73 270 0.0 0.0 0.00 0.01 0.01 56 1012.1
20260510201633 73 270 0.0 0.0 0.00 0.01 0.01 55 1012.2
20260510201130 74 270 0.0 0.0 0.00 0.01 0.01 54 1012.2
20260510200619 74 278 0.0 0.0 0.00 0.01 0.01 53 1012.1
20260510200124 74 279 0.0 0.0 0.00 0.01 0.01 52 1012.1
20260510195630 75 280 0.0 0.0 0.00 0.01 0.01 51 1012.2
20260510195134 75 298 0.0 0.0 0.00 0.01 0.01 50 1012.2
20260510194622 75 272 0.0 0.0 0.00 0.01 0.01 49 1012.3
20260510193629 76 284 0.0 0.0 0.00 0.01 0.01 48 1012.5
20260510193134 76 317 0.0 0.0 0.00 0.01 0.01 47 1012.5
20260510192619 76 249 0.0 4.0 0.00 0.01 0.01 47 1012.6
20260510192107 77 285 0.0 7.0 0.00 0.01 0.01 46 1012.6
20260510191612 77 287 0.0 0.0 0.00 0.01 0.01 48 1012.6
20260510185548 78 257 0.0 5.0 0.00 0.01 0.01 42 1012.7
20260510185038 79 251 0.0 4.0 0.00 0.01 0.01 41 1012.7
20260510184530 79 244 0.0 7.0 0.00 0.01 0.01 41 1012.6
20260510184040 79 240 0.0 3.0 0.00 0.01 0.01 42 1012.5
20260510183041 79 246 0.0 3.0 0.00 0.01 0.01 40 1012.5
20260510181005 79 237 0.0 0.0 0.00 0.01 0.01 43 1012.7
20260510180454 78 316 0.0 0.0 0.00 0.01 0.01 44 1012.7
20260510180002 78 309 0.0 0.0 0.00 0.01 0.01 46 1012.7
20260510175507 78 267 0.0 0.0 0.00 0.01 0.01 44 1012.7
20260510174950 78 244 0.0 2.0 0.00 0.01 0.01 45 1012.8
20260510173935 78 264 0.0 3.0 0.00 0.01 0.01 48 1012.8
20260510173422 78 192 0.0 3.0 0.00 0.01 0.01 48 1012.8
20260510172905 78 298 0.0 0.0 0.00 0.01 0.01 49 1013.0
20260510171912 78 326 0.0 4.0 0.00 0.01 0.01 48 1013.1
20260510171354 77 305 0.0 0.0 0.00 0.01 0.01 53 1013.1
20260510170840 77 320 0.0 9.0 0.00 0.01 0.01 48 1013.3
20260510170340 77 229 0.0 4.0 0.00 0.01 0.01 48 1013.3
20260510165831 76 19 0.0 5.0 0.00 0.01 0.01 51 1013.2
20260510165335 76 196 0.0 1.0 0.00 0.01 0.01 52 1013.2
20260510164341 77 243 0.0 0.0 0.00 0.01 0.01 47 1013.3
20260510163827 77 257 0.0 7.0 0.00 0.01 0.01 48 1013.3
20260510162815 76 298 0.0 9.0 0.00 0.01 0.01 49 1013.2
20260510162315 76 148 0.0 8.0 0.00 0.01 0.01 49 1013.3
20260510161813 76 244 0.0 6.0 0.00 0.01 0.01 50 1013.4
20260510160802 75 292 0.0 8.0 0.00 0.01 0.01 50 1013.2
20260510160250 75 136 0.0 3.0 0.00 0.01 0.01 51 1013.2
20260510155739 75 278 0.0 3.0 0.00 0.01 0.01 52 1013.2
20260510155244 75 296 0.0 1.0 0.00 0.01 0.01 52 1013.1
20260510154236 74 313 0.0 0.0 0.00 0.01 0.01 52 1013.0
20260510153238 75 292 0.0 3.0 0.00 0.01 0.01 52 1013.1
20260510152734 75 5 0.0 0.0 0.00 0.01 0.01 53 1013.1
20260510151731 74 26 0.0 1.0 0.00 0.01 0.01 53 1013.1
20260510151215 74 355 0.0 3.0 0.00 0.01 0.01 54 1013.2
20260510150147 73 207 0.0 8.0 0.00 0.01 0.01 54 1013.2
20260510145638 73 242 0.0 7.0 0.00 0.01 0.01 54 1013.1
20260510144123 73 209 0.0 8.0 0.00 0.01 0.01 54 1013.2
20260510143611 72 306 0.0 10.0 0.00 0.01 0.01 54 1013.1
20260510143118 72 240 0.0 10.0 0.00 0.01 0.01 55 1013.1
20260510142622 72 289 0.0 0.0 0.00 0.01 0.01 55 1013.0
20260510142106 72 269 0.0 0.0 0.00 0.01 0.01 55 1013.0
20260510141607 72 158 0.0 8.0 0.00 0.01 0.01 54 1013.0
20260510141106 71 163 0.0 6.0 0.00 0.01 0.01 55 1013.0
20260510140547 70 336 0.0 6.0 0.00 0.01 0.01 55 1012.9
20260510135548 69 265 0.0 5.0 0.00 0.01 0.01 55 1013.0
20260510134533 68 229 0.0 4.0 0.00 0.01 0.01 54 1013.0
20260510133524 67 236 0.0 1.0 0.00 0.01 0.01 43 1013.0
20260510132505 65 284 0.0 7.0 0.00 0.00 0.01 3 1013.1
20260510132010 62 205 0.0 2.0 0.00 0.00 0.00 1 1013.1
20260510131451 61 304 0.0 6.0 0.00 0.00 0.00 1 1013.1
20260510130436 61 261 0.0 0.0 0.00 0.00 0.00 1 1013.0
20260510125931 60 120 0.0 3.0 0.00 0.00 0.00 1 1013.0
20260510124911 59 233 0.0 0.0 0.00 0.00 0.00 1 1012.8
20260510124400 58 167 0.0 0.0 0.00 0.00 0.00 1 1012.7
20260510123404 58 194 0.0 0.0 0.00 0.00 0.00 1 1012.9
20260510122854 58 268 0.0 0.0 0.00 0.00 0.00 1 1013.1
20260510121348 56 164 0.0 0.0 0.00 0.00 0.00 1 1012.8
20260510120836 56 164 0.0 0.0 0.00 0.00 0.00 1 1012.9
20260510120339 56 164 0.0 0.0 0.00 0.00 0.00 1 1012.9
20260510115834 55 164 0.0 0.0 0.00 0.00 0.00 1 1012.8
20260510114845 54 161 0.0 0.0 0.00 0.00 0.00 1 1012.7
20260510114343 54 161 0.0 0.0 0.00 0.00 0.00 1 1012.7
20260510113826 53 275 0.0 0.0 0.00 0.00 0.00 1 1012.5
20260510113329 53 275 0.0 0.0 0.00 0.00 0.00 1 1012.5
20260510112819 52 275 0.0 0.0 0.00 0.00 0.00 1 1012.5
20260510112306 52 275 0.0 0.0 0.00 0.00 0.00 1 1012.4
20260510111809 52 275 0.0 0.0 0.00 0.00 0.00 1 1012.4
20260510111305 52 275 0.0 0.0 0.00 0.00 0.00 1 1012.3
20260510110753 51 275 0.0 0.0 0.00 0.00 0.00 1 1012.2
20260510110252 51 275 0.0 0.0 0.00 0.00 0.00 1 1012.1
20260510105216 51 275 0.0 0.0 0.00 0.00 0.00 1 1012.2
20260510104703 51 275 0.0 0.0 0.00 0.00 0.00 1 1012.1
20260510104202 51 275 0.0 0.0 0.00 0.00 0.00 1 1012.0
20260510103158 51 275 0.0 0.0 0.00 0.00 0.00 1 1012.0
20260510102700 51 275 0.0 0.0 0.00 0.00 0.00 1 1012.0
20260510101639 51 275 0.0 0.0 0.00 0.00 0.00 1 1011.9
20260510100636 51 275 0.0 0.0 0.00 0.00 0.00 1 1011.7
20260510100123 50 275 0.0 0.0 0.00 0.00 0.00 1 1011.7
20260510095623 50 275 0.0 0.0 0.00 0.00 0.00 1 1011.6
20260510095128 50 275 0.0 0.0 0.00 0.00 0.00 1 1011.5
20260510094130 50 351 0.0 0.0 0.00 0.00 0.00 1 1011.1
20260510093631 50 351 0.0 0.0 0.00 0.00 0.00 1 1011.0
20260510093119 50 351 0.0 0.0 0.00 0.00 0.00 1 1011.0
20260510092622 50 351 0.0 0.0 0.00 0.00 0.00 1 1011.1
20260510092113 51 351 0.0 0.0 0.00 0.00 0.00 1 1011.0
20260510091619 51 351 0.0 0.0 0.00 0.00 0.00 1 1011.0
20260510091103 51 351 0.0 0.0 0.00 0.00 0.00 1 1011.0
20260510090043 51 351 0.0 0.0 0.00 0.00 0.00 1 1010.9
20260510085527 51 351 0.0 0.0 0.00 0.00 0.00 1 1011.0
20260510084518 52 351 0.0 0.0 0.00 0.00 0.00 1 1011.0
20260510084026 51 351 0.0 0.0 0.00 0.00 0.00 1 1011.0
20260510083522 51 351 0.0 0.0 0.00 0.00 0.00 1 1011.0
20260510083012 51 351 0.0 0.0 0.00 0.00 0.00 1 1010.9
20260510082505 51 351 0.0 0.0 0.00 0.00 0.00 1 1010.9
20260510082015 51 351 0.0 0.0 0.00 0.00 0.00 1 1010.9
20260510081500 51 351 0.0 0.0 0.00 0.00 0.00 1 1010.9
20260510081006 51 351 0.0 0.0 0.00 0.00 0.00 1 1010.9
20260510080512 51 351 0.0 0.0 0.00 0.00 0.00 1 1010.9
20260510080014 51 351 0.0 0.0 0.00 0.00 0.00 1 1010.9
20260510075021 51 355 0.0 0.0 0.00 0.00 0.00 1 1010.9
20260510074530 51 355 0.0 0.0 0.00 0.00 0.00 1 1010.8
20260510074029 51 355 0.0 0.0 0.00 0.00 0.00 1 1010.7
20260510073511 51 355 0.0 0.0 0.00 0.00 0.00 1 1010.5
20260510072952 51 355 0.0 0.0 0.00 0.00 0.00 1 1010.5
20260510072448 51 355 0.0 0.0 0.00 0.00 0.00 1 1010.5
20260510071957 51 355 0.0 0.0 0.00 0.00 0.00 1 1010.5
20260510071447 50 355 0.0 0.0 0.00 0.00 0.00 1 1010.4
20260510070938 50 355 0.0 0.0 0.00 0.00 0.00 1 1010.3
20260510070421 50 355 0.0 0.0 0.00 0.00 0.00 1 1010.4
20260510065905 50 355 0.0 0.0 0.00 0.00 0.00 1 1010.3
20260510065355 50 355 0.0 0.0 0.00 0.00 0.00 1 1010.2
20260510064904 50 355 0.0 0.0 0.00 0.00 0.00 1 1010.1
20260510063842 51 355 0.0 0.0 0.00 0.00 0.00 1 1009.9
20260510062815 51 355 0.0 0.0 0.00 0.00 0.00 1 1009.9
20260510062325 51 355 0.0 0.0 0.00 0.00 0.00 1 1009.9
20260510061819 51 355 0.0 0.0 0.00 0.00 0.00 1 1009.9
20260510061306 51 355 0.0 0.0 0.00 0.00 0.00 1 1010.0
20260510060759 51 355 0.0 0.0 0.00 0.00 0.00 1 1009.9
20260510060306 51 355 0.0 0.0 0.00 0.00 0.00 1 1009.9
20260510055306 51 355 0.0 0.0 0.00 0.00 0.00 1 1009.8
20260510054807 51 355 0.0 0.0 0.00 0.00 0.00 1 1009.9
20260510054303 51 355 0.0 0.0 0.00 0.00 0.00 1 1010.0
20260510053800 51 355 0.0 0.0 0.00 0.00 0.00 1 1010.0
20260510053250 51 355 0.0 0.0 0.00 0.00 0.00 1 1010.1
20260510052738 51 355 0.0 0.0 0.00 0.00 0.00 1 1010.0
20260510052243 51 355 0.0 0.0 0.00 0.00 0.00 1 1010.0
20260510051237 51 355 0.0 0.0 0.00 0.00 0.00 1 1010.0
20260510050720 52 355 0.0 0.0 0.00 0.00 0.00 1 1010.0
20260510050207 52 355 0.0 0.0 0.00 0.00 0.00 1 1010.1
20260510045716 52 355 0.0 0.0 0.00 0.00 0.00 1 1010.1
20260510045159 52 355 0.0 0.0 0.00 0.00 0.00 1 1010.1
20260510044642 52 355 0.0 0.0 0.00 0.00 0.00 1 1010.2
20260510044126 52 355 0.0 0.0 0.00 0.00 0.00 1 1010.2
20260510043619 52 355 0.0 0.0 0.00 0.00 0.00 1 1010.1
20260510043102 52 355 0.0 0.0 0.00 0.00 0.00 1 1010.2
20260510042549 52 355 0.0 0.0 0.00 0.00 0.00 1 1010.2
20260510042048 52 355 0.0 0.0 0.00 0.00 0.00 1 1010.2
20260510041537 53 355 0.0 0.0 0.00 0.00 0.00 1 1010.2
20260510041044 53 355 0.0 0.0 0.00 0.00 0.00 1 1010.1
20260510040530 53 355 0.0 0.0 0.00 0.00 0.00 1 1010.2
20260510040022 53 355 0.0 0.0 0.00 0.00 0.00 1 1010.1
20260510035520 53 355 0.0 0.0 0.00 0.00 0.00 1 1010.2
20260510035009 53 355 0.0 0.0 0.00 0.00 0.00 1 1010.1
20260510034022 54 355 0.0 0.0 0.00 0.00 0.00 1 1010.2
20260510033507 54 355 0.0 0.0 0.00 0.00 0.00 1 1010.2
20260510033016 54 355 0.0 0.0 0.00 0.00 0.00 1 1010.2
20260510032520 54 355 0.0 0.0 0.00 0.00 0.00 1 1010.2
20260510032005 54 355 0.0 0.0 0.00 0.00 0.00 1 1010.1
20260510031449 55 355 0.0 0.0 0.00 0.00 0.00 1 1010.2
20260510030948 55 355 0.0 0.0 0.00 0.00 0.00 1 1010.1
20260510030454 55 355 0.0 0.0 0.00 0.00 0.00 1 1010.1
20260510030002 55 355 0.0 0.0 0.00 0.00 0.00 1 1010.1
20260510025501 56 355 0.0 0.0 0.00 0.00 0.00 1 1010.0
20260510025000 56 355 0.0 0.0 0.00 0.00 0.00 1 1010.0
20260510024452 56 355 0.0 0.0 0.00 0.00 0.00 1 1010.0
20260510023936 56 355 0.0 0.0 0.00 0.00 0.00 1 1010.0
20260510023428 57 355 0.0 0.0 0.00 0.00 0.00 1 1009.9
20260510022417 57 355 0.0 0.0 0.00 0.00 0.00 9 1009.7
20260510021401 58 355 0.0 0.0 0.00 0.00 0.00 14 1009.7
20260510020857 58 355 0.0 0.0 0.00 0.00 0.00 18 1009.6
20260510020344 58 355 0.0 0.0 0.00 0.00 0.00 20 1009.6
20260510015838 58 355 0.0 0.0 0.00 0.00 0.00 19 1009.6
20260510015343 59 355 0.0 0.0 0.00 0.00 0.00 19 1009.6
20260510014319 59 355 0.0 0.0 0.00 0.00 0.00 18 1009.5
20260510013829 60 355 0.0 0.0 0.00 0.00 0.00 18 1009.5
20260510013337 60 355 0.0 0.0 0.00 0.00 0.00 21 1009.4
20260510012822 60 355 0.0 0.0 0.00 0.00 0.00 23 1009.3
20260510012327 60 355 0.0 0.0 0.00 0.00 0.00 24 1009.2
20260510011342 61 355 0.0 0.0 0.00 0.00 0.00 21 1009.0
20260510010845 61 355 0.0 0.0 0.00 0.00 0.00 22 1008.9
20260510010348 61 355 0.0 0.0 0.00 0.00 0.00 26 1008.8
20260510005858 61 355 0.0 0.0 0.00 0.00 0.00 30 1008.7
20260510005359 61 355 0.0 0.0 0.00 0.00 0.00 35 1008.7
20260510004404 62 355 0.0 0.0 0.00 0.00 0.00 36 1008.6
20260510003901 62 355 0.0 0.0 0.00 0.00 0.00 44 1008.5
20260510002847 63 355 0.0 0.0 0.00 0.00 0.00 53 1008.4
20260510002340 63 355 0.0 0.0 0.00 0.00 0.00 54 1008.5
20260510001841 64 355 0.0 0.0 0.00 0.00 0.00 55 1008.4
20260510001342 64 355 0.0 0.0 0.00 0.00 0.00 56 1008.5
20260510000326 65 355 0.0 0.0 0.00 0.00 0.00 57 1008.5
20260509235833 66 355 0.0 0.0 0.00 0.00 0.00 57 1008.5
20260509235320 66 355 0.0 0.0 0.00 0.00 0.00 58 1008.5
20260509234810 67 355 0.0 0.0 0.00 0.00 0.00 58 1008.4
20260509234304 67 355 0.0 0.0 0.00 0.00 0.00 58 1008.3
20260509233809 68 355 0.0 0.0 0.00 0.00 0.00 58 1008.3
20260509233303 68 355 0.0 0.0 0.00 0.00 0.00 58 1008.4
20260509232813 69 355 0.0 0.0 0.00 0.00 0.00 58 1008.2
20260509232255 69 255 0.0 0.0 0.00 0.00 0.00 57 1008.2
20260509231800 70 113 0.0 0.0 0.00 0.00 0.00 57 1008.2
20260509230803 70 113 0.0 0.0 0.00 0.00 0.00 57 1008.1
20260509230257 70 113 0.0 0.0 0.00 0.00 0.00 57 1008.1
20260509225803 70 113 0.0 0.0 0.00 0.00 0.00 57 1008.2
20260509224802 70 113 0.0 0.0 0.00 0.00 0.00 57 1008.0
20260509224308 70 113 0.0 0.0 0.00 0.00 0.00 57 1008.0
20260509223255 70 113 0.0 0.0 0.00 0.00 0.00 57 1008.1
20260509222746 70 113 0.0 0.0 0.00 0.00 0.00 57 1008.1
20260509222238 70 113 0.0 0.0 0.00 0.00 0.00 57 1008.1
20260509221743 70 113 0.0 0.0 0.00 0.00 0.00 57 1008.0
20260509220211 70 141 0.0 0.0 0.00 0.00 0.00 57 1008.1
20260509215700 70 141 0.0 0.0 0.00 0.00 0.00 57 1008.1